DW9433 Weather Reports


Display with metric or nautical units.
time (UTC)temp
F
wind
direction
speed
MPH
gust
MPH
rain 1hr
in
rain 24hr
in
rain mn
in
humidity
%
barometer
mb
20260506073057 54 310 0.0 0.0 0.17 1.37 0.28 91 1008.2
20260506071556 55 360 0.0 0.0 0.25 1.35 0.26 90 1007.7
20260506061535 67 73 0.0 5.0 0.01 1.10 0.01 82 1007.0
20260506044521 70 163 0.0 9.0 0.00 1.09 1.09 85 1005.8
20260506043020 70 164 0.0 0.0 0.00 1.09 1.09 85 1006.5
20260506041519 70 259 0.0 3.0 0.00 1.09 1.09 85 1006.3
20260506040018 70 132 0.0 5.0 0.00 1.09 1.09 85 1006.5
20260506034518 70 167 0.0 4.0 0.00 1.09 1.09 85 1006.9
20260506033017 70 198 0.0 1.0 0.00 1.09 1.09 85 1006.7
20260506031517 70 168 0.0 0.0 0.00 1.09 1.09 85 1006.8
20260506030016 70 184 0.0 4.0 0.00 1.09 1.09 85 1006.8
20260506024516 70 154 0.0 2.0 0.00 1.09 1.09 85 1006.9
20260506023025 70 149 0.0 5.0 0.00 1.09 1.09 86 1007.0
20260506021521 70 132 0.0 3.0 0.00 1.09 1.09 87 1006.7
20260506020014 70 157 0.0 4.0 0.00 1.09 1.09 87 1006.7
20260506014515 70 159 0.0 0.0 0.00 1.09 1.09 88 1006.5
20260506013015 70 183 0.0 3.0 0.00 1.09 1.09 88 1006.5
20260506011512 70 156 1.0 5.0 0.00 1.09 1.09 88 1006.4
20260506010014 70 213 0.0 5.0 0.00 1.09 1.09 89 1006.3
20260506004512 69 167 0.0 5.0 0.00 1.09 1.09 89 1005.9
20260506003013 69 146 0.0 0.0 0.00 1.09 1.09 90 1006.3
20260506001508 69 138 0.0 0.0 0.00 1.09 1.09 90 1006.3
20260506000007 69 134 0.0 0.0 0.00 1.09 1.09 90 1006.0
20260505234505 69 161 0.0 5.0 0.00 1.09 1.09 91 1006.1
20260505233004 68 189 0.0 0.0 0.00 1.09 1.09 91 1006.5
20260505231503 68 170 0.0 1.0 0.00 1.09 1.09 91 1006.3
20260505230003 68 167 0.0 3.0 0.00 1.09 1.09 91 1006.4
20260505224502 68 192 0.0 0.0 0.00 1.09 1.09 92 1006.4
20260505223002 67 184 0.0 4.0 0.00 1.09 1.09 92 1006.4
20260505221604 67 130 0.0 2.0 0.00 1.09 1.09 93 1006.2
20260505214559 66 126 0.0 0.0 0.01 1.09 1.09 94 1006.8
20260505213054 66 165 0.0 3.0 0.01 1.09 1.09 93 1007.0
20260505211553 66 152 0.0 0.0 0.01 1.09 1.09 94 1007.2
20260505210051 65 170 0.0 0.0 0.00 1.08 1.08 93 1007.2
20260505204550 65 172 0.0 0.0 0.00 1.08 1.08 93 1007.3
20260505203107 65 161 0.0 4.0 0.00 1.08 1.08 93 1007.3
20260505201557 65 153 0.0 7.0 0.00 1.08 1.08 92 1007.5
20260505200053 65 161 0.0 6.0 0.00 1.08 1.08 92 1007.7
20260505194549 65 170 0.0 0.0 0.00 1.08 1.08 92 1007.6
20260505193049 65 142 0.0 5.0 0.00 1.08 1.08 93 1007.7
20260505191559 64 192 0.0 4.0 0.00 1.08 1.08 94 1007.8
20260505190050 64 173 0.0 5.0 0.00 1.08 1.08 94 1007.8
20260505184547 63 173 0.0 4.0 0.00 1.08 1.08 94 1008.0
20260505183047 63 160 0.0 5.0 0.00 1.08 1.08 94 1008.1
20260505181547 63 163 0.0 4.0 0.00 1.08 1.08 94 1008.3
20260505180049 62 137 0.0 6.0 0.00 1.08 1.08 94 1008.4
20260505174546 62 153 0.0 3.0 0.00 1.08 1.08 94 1008.6
20260505173044 62 184 0.0 4.0 0.01 1.08 1.08 95 1008.4
20260505171547 61 181 0.0 2.0 0.05 1.08 1.08 95 1008.6
20260505164544 60 133 0.0 7.0 0.21 1.08 1.08 94 1009.0
20260505163044 60 161 0.0 6.0 0.43 1.07 1.07 95 1009.6
20260505161541 60 151 0.0 5.0 0.46 1.03 1.03 94 1009.4
20260505153041 59 184 0.0 0.0 0.33 0.63 0.63 93 1010.6
20260505151554 59 175 0.0 4.0 0.39 0.56 0.56 93 1009.9
20260505124516 63 168 0.0 0.0 0.00 0.00 0.00 76 1009.9
20260505123014 64 136 0.0 2.0 0.00 0.00 0.00 75 1009.7
20260505121515 63 159 0.0 4.0 0.00 0.00 0.00 75 1009.5
20260505120013 63 157 0.0 5.0 0.00 0.00 0.00 75 1009.2
20260505114516 63 171 0.0 0.0 0.00 0.00 0.00 75 1009.1
20260505113017 63 111 0.0 1.0 0.00 0.00 0.00 74 1009.1
20260505111511 63 128 0.0 0.0 0.00 0.00 0.00 74 1008.6
20260505101506 64 196 0.0 2.0 0.00 0.00 0.00 72 1008.2
20260505100005 64 128 0.0 2.0 0.00 0.00 0.00 71 1008.1
20260505094504 64 137 0.0 1.0 0.00 0.00 0.00 70 1007.9
20260505093004 64 147 0.0 0.0 0.00 0.00 0.00 69 1007.7
20260505091502 65 168 0.0 1.0 0.00 0.00 0.00 69 1007.5
20260505090001 65 174 0.0 1.0 0.00 0.00 0.00 68 1007.5
20260505084600 65 211 0.0 3.0 0.00 0.00 0.00 68 1007.6
20260505083104 65 213 0.0 3.0 0.00 0.00 0.00 68 1007.7
20260505081558 65 175 0.0 3.0 0.00 0.00 0.00 67 1008.1
20260505080056 65 165 0.0 2.0 0.00 0.00 0.00 67 1008.2
20260505074554 65 171 0.0 3.0 0.00 0.00 0.00 66 1008.2